Regional Weather Roundup
Issued by NWS Glasgow, MT

Home | Current Version | Previous Version | Text Only | Print | Product List | Glossary On
Versions: 1 2 3 4 5 6 7 8 9 10 11 12 13 14 15 16 17 18 19 20 21 22 23 24 25 26 27 28 29 30 31 32 33 34 35 36 37 38 39 40 41 42 43 44 45 46 47 48 49 50
000
ASUS45 KGGW 271315
RWRGGW
HOURLY REGIONAL WEATHER ROUNDUP FOR NORTHEAST MONTANA
NATIONAL WEATHER SERVICE GLASGOW MONTANA
700 AM MDT WED MAY 27 2015

NOTE: "FAIR" INDICATES FEW OR NO CLOUDS BELOW 12,000 FEET WITH NO
SIGNIFICANT WEATHER AND/OR OBSTRUCTIONS TO VISISBILITY.

NORTHEAST MONTANA


CITY           SKY/WX    TMP DP  RH WIND       PRES   REMARKS
GLASGOW        PTSUNNY   58  53  84 S6        29.94R
WOLF POINT     CLOUDY    58  49  72 CALM      29.93R
JORDAN           N/A     57  54  89 NW6       29.94R
WINNETT          N/A     48  46  93 S2          N/A
SIDNEY         MOSUNNY   55  48  76 CALM      29.93S
GLENDIVE       PTSUNNY   57  48  72 CALM      29.94R
MALTA            N/A     57  53  86 NW7G15      N/A
SCOBEY           N/A     50  42  74 CALM      29.91F

FORT PECK REPORTS


CITY           SKY/WX    TMP DP  RH WIND       PRES   REMARKS
FORT PECK        N/A     58  53  84 W12G22      N/A
THE PINES        N/A     57  51  80 N6G15       N/A

SOUTHEAST MONTANA


CITY           SKY/WX    TMP DP  RH WIND       PRES   REMARKS
BILLINGS       PTSUNNY   52  50  93 SW3       29.99S
MILES CITY     CLOUDY    56  51  84 CALM      29.92R
BAKER          PTSUNNY   52  48  86 SE8       29.95F
LIVINGSTON     CLOUDY    52  44  74 W9        30.02S

CENTRAL MONTANA


CITY           SKY/WX    TMP DP  RH WIND       PRES   REMARKS
HAVRE          PTSUNNY   53  51  93 S5        29.96S
LEWISTOWN      FOG       50  47  89 SW5       30.02R VSB 3/4
GREAT FALLS    CLOUDY    50  48  93 SW9       30.02S
CUT BANK       CLOUDY    50  47  89 NW14      30.03R
HELENA         CLOUDY    51  48  89 CALM      30.04R
BUTTE          CLOUDY    46  43  89 CALM      30.07S
BOZEMAN        CLOUDY    51  46  83 CALM      30.05R

WESTERN MONTANA


CITY           SKY/WX    TMP DP  RH WIND       PRES   REMARKS
MISSOULA       PTCLDY    44  41  89 CALM      30.05R
KALISPELL      NOT AVBL

NORTH DAKOTA


CITY           SKY/WX    TMP DP  RH WIND       PRES   REMARKS
WILLISTON      SUNNY     59  47  64 CALM      29.93S
DICKINSON      MOSUNNY   57  47  69 SE5       29.95R
MINOT          MOSUNNY   59  48  67 E5        29.95R
BISMARCK       SUNNY     59  50  72 W3        29.96S

SOUTHERN SASKATCHEWAN


CITY           SKY/WX    TMP DP  RH WIND       PRES   REMARKS
REGINA         PTSUNNY   54  46  76 E12       29.99R
MOOSE JAW      PTSUNNY   54  48  82 NE6       29.99R
ESTEVAN        MOSUNNY   54  50  87 E15       29.95R
SWIFT CURRENT  MOSUNNY   54  48  82 E15       29.95S




USA.gov is the U.S. government's official web portal to all federal, state and local government web resources and services.